User: anonymous   Login
Location: Cincinnati Observatory Center
(39.1389°N, 84.4225°W)
Time: 09:32:20
(UTC-05:00)
Language:

Hubble Space Telescope - Orbit

View from above orbital plane
View from above orbital plane
View from above satellite
View from above satellite

Ground track
Ground track

The orbit data is extracted from the following two-line orbital elements,

1 20580U 90037B   15062.63599413  .00003778  00000-0  23513-3 0  9990
2 20580 028.4703 129.9155 0003137 176.4793 319.4887 15.06918916163875
Epoch (UTC): 03 March 2015 15:15:49
Eccentricity: 0.0003137
inclination: 28.4703°
perigee height: 543 km
apogee height: 548 km
right ascension of ascending node: 129.9155°
argument of perigee: 176.4793°
revolutions per day: 15.06918916
mean anomaly at epoch: 319.4887°
orbit number at epoch: 16387

The dashed part of the orbit path shows where the satellite is in the earth's shadow,  

DLR